Time,TemperatureF,DewpointF,PressureIn,WindDirection,WindDirectionDegrees,WindSpeedMPH,WindSpeedGustMPH,Humidity,HourlyPrecipIn,Conditions,Clouds,dailyrainin,SoftwareType,DateUTC
2013-11-04 00:11:00,19.0,-99.9,-100.00,NW,306,23.0,34.0,-999,-99.99,,,-99.99,,2013-11-04 07:11:00,
2013-11-04 00:20:00,18.0,-99.9,-100.00,NW,306,25.0,30.0,-999,-99.99,,,-99.99,,2013-11-04 07:20:00,
2013-11-04 01:12:00,18.0,-99.9,-100.00,NW,306,25.0,30.0,-999,-99.99,,,-99.99,,2013-11-04 08:12:00,
2013-11-04 01:20:00,18.0,-99.9,-100.00,West,279,23.0,31.0,-999,-99.99,,,-99.99,,2013-11-04 08:20:00,
2013-11-04 02:12:00,18.0,-99.9,-100.00,West,279,23.0,31.0,-999,-99.99,,,-99.99,,2013-11-04 09:12:00,
2013-11-04 02:20:00,18.0,-99.9,-100.00,WNW,291,33.0,43.0,-999,-99.99,,,-99.99,,2013-11-04 09:20:00,
2013-11-04 03:12:00,18.0,-99.9,-100.00,WNW,291,33.0,43.0,-999,-99.99,,,-99.99,,2013-11-04 10:12:00,
2013-11-04 03:20:00,18.0,-99.9,-100.00,WNW,300,32.0,37.0,-999,-99.99,,,-99.99,,2013-11-04 10:20:00,
2013-11-04 04:12:00,18.0,-99.9,-100.00,WNW,300,32.0,37.0,-999,-99.99,,,-99.99,,2013-11-04 11:12:00,
2013-11-04 04:20:00,16.0,-99.9,-100.00,NW,308,23.0,35.0,-999,-99.99,,,-99.99,,2013-11-04 11:20:00,
2013-11-04 05:12:00,16.0,-99.9,-100.00,NW,308,23.0,35.0,-999,-99.99,,,-99.99,,2013-11-04 12:12:00,
2013-11-04 05:20:00,18.0,-99.9,-100.00,NW,308,20.0,22.0,-999,-99.99,,,-99.99,,2013-11-04 12:20:00,
2013-11-04 06:12:00,18.0,-99.9,-100.00,NW,308,20.0,22.0,-999,-99.99,,,-99.99,,2013-11-04 13:12:00,
2013-11-04 06:20:00,18.0,-99.9,-100.00,NW,308,19.0,27.0,-999,-99.99,,,-99.99,,2013-11-04 13:20:00,
2013-11-04 07:11:00,18.0,-99.9,-100.00,NW,308,19.0,27.0,-999,-99.99,,,-99.99,,2013-11-04 14:11:00,
2013-11-04 07:20:00,18.0,-99.9,-100.00,WNW,299,19.0,26.0,-999,-99.99,,,-99.99,,2013-11-04 14:20:00,
2013-11-04 08:11:00,18.0,-99.9,-100.00,WNW,299,19.0,26.0,-999,-99.99,,,-99.99,,2013-11-04 15:11:00,
2013-11-04 08:20:00,21.0,-99.9,-100.00,NW,313,12.0,23.0,-999,-99.99,,,-99.99,,2013-11-04 15:20:00,
2013-11-04 09:13:00,21.0,-99.9,-100.00,NW,313,12.0,23.0,-999,-99.99,,,-99.99,,2013-11-04 16:13:00,
2013-11-04 09:20:00,25.0,-99.9,-100.00,WNW,297,4.0,8.0,-999,-99.99,,,-99.99,,2013-11-04 16:20:00,
2013-11-04 10:12:00,25.0,-99.9,-100.00,WNW,297,4.0,8.0,-999,-99.99,,,-99.99,,2013-11-04 17:12:00,
2013-11-04 10:20:00,25.0,-99.9,-100.00,ESE,110,9.0,10.0,-999,-99.99,,,-99.99,,2013-11-04 17:20:00,
2013-11-04 11:12:00,25.0,-99.9,-100.00,ESE,110,9.0,10.0,-999,-99.99,,,-99.99,,2013-11-04 18:12:00,
2013-11-04 11:20:00,27.0,-99.9,-100.00,East,82,12.0,16.0,-999,-99.99,,,-99.99,,2013-11-04 18:20:00,
2013-11-04 12:12:00,27.0,-99.9,-100.00,East,82,12.0,16.0,-999,-99.99,,,-99.99,,2013-11-04 19:12:00,
2013-11-04 13:11:00,27.0,-99.9,-100.00,SSE,166,17.0,19.0,-999,-99.99,,,-99.99,,2013-11-04 20:11:00,
2013-11-04 14:12:00,25.0,-99.9,-100.00,South,175,14.0,23.0,-999,-99.99,,,-99.99,,2013-11-04 21:12:00,
2013-11-04 15:14:00,25.0,-99.9,-100.00,South,169,20.0,25.0,-999,-99.99,,,-99.99,,2013-11-04 22:14:00,
2013-11-04 16:13:00,25.0,-99.9,-100.00,South,173,20.0,25.0,-999,-99.99,,,-99.99,,2013-11-04 23:13:00,
2013-11-04 17:12:00,23.0,-99.9,-100.00,South,173,15.0,27.0,-999,-99.99,,,-99.99,,2013-11-05 00:12:00,
2013-11-04 18:12:00,23.0,-99.9,-100.00,South,174,9.0,17.0,-999,-99.99,,,-99.99,,2013-11-05 01:12:00,
2013-11-04 19:11:00,21.0,-99.9,-100.00,SSW,212,8.0,22.0,-999,-99.99,,,-99.99,,2013-11-05 02:11:00,
2013-11-04 20:12:00,19.0,-99.9,-100.00,SSE,167,14.0,17.0,-999,-99.99,,,-99.99,,2013-11-05 03:12:00,
2013-11-04 21:14:00,19.0,-99.9,-100.00,SSE,147,8.0,13.0,-999,-99.99,,,-99.99,,2013-11-05 04:14:00,
2013-11-04 22:13:00,21.0,-99.9,-100.00,SW,225,9.0,15.0,-999,-99.99,,,-99.99,,2013-11-05 05:13:00,
2013-11-04 23:52:00,21.0,-99.9,-100.00,NNW,340,6.0,6.0,-999,-99.99,,,-99.99,,2013-11-05 06:52:00,